| time (UTC) | temp F | wind direction | speed knots | gust knots | rain 1hr in | rain 24hr in | rain mn in | humidity % | barometer mb |
| 20260506194956 | 70 | 227 | 0.9 | 2.6 | 0.00 | 0.00 | 0.00 | 51 | 1020.1 |
| 20260506194454 | 69 | 212 | 3.5 | 5.2 | 0.00 | 0.00 | 0.00 | 50 | 1020.1 |
| 20260506193950 | 69 | 207 | 2.6 | 3.5 | 0.00 | 0.00 | 0.00 | 50 | 1020.1 |
| 20260506193448 | 69 | 200 | 1.7 | 2.6 | 0.00 | 0.00 | 0.00 | 51 | 1020.1 |
| 20260506192944 | 69 | 317 | 1.7 | 3.5 | 0.00 | 0.00 | 0.00 | 51 | 1020.1 |
| 20260506192441 | 69 | 359 | 0.9 | 2.6 | 0.00 | 0.00 | 0.00 | 52 | 1020.3 |
| 20260506191938 | 67 | 20 | 3.5 | 4.3 | 0.00 | 0.00 | 0.00 | 52 | 1020.3 |
| 20260506191434 | 68 | 318 | 6.1 | 7.0 | 0.00 | 0.00 | 0.00 | 51 | 1020.5 |
| 20260506190931 | 69 | 78 | 2.6 | 3.5 | 0.00 | 0.00 | 0.00 | 50 | 1020.4 |
| 20260506190428 | 67 | 351 | 2.6 | 3.5 | 0.00 | 0.00 | 0.00 | 55 | 1020.4 |
| 20260506185925 | 66 | 340 | 1.7 | 3.5 | 0.00 | 0.00 | 0.00 | 56 | 1020.4 |
| 20260506185422 | 67 | 303 | 5.2 | 9.6 | 0.00 | 0.00 | 0.00 | 51 | 1020.7 |
| 20260506184919 | 70 | 3 | 1.7 | 5.2 | 0.00 | 0.00 | 0.00 | 47 | 1020.4 |
| 20260506184415 | 70 | 261 | 1.7 | 3.5 | 0.00 | 0.00 | 0.00 | 49 | 1020.5 |
| 20260506183913 | 69 | 254 | 1.7 | 5.2 | 0.00 | 0.00 | 0.00 | 50 | 1020.5 |
| 20260506183408 | 69 | 332 | 3.5 | 3.5 | 0.00 | 0.00 | 0.00 | 51 | 1020.6 |
| 20260506182906 | 69 | 330 | 1.7 | 3.5 | 0.00 | 0.00 | 0.00 | 50 | 1020.4 |
| 20260506182403 | 69 | 205 | 1.7 | 2.6 | 0.00 | 0.00 | 0.00 | 51 | 1020.5 |
| 20260506181900 | 67 | 108 | 1.7 | 2.6 | 0.00 | 0.00 | 0.00 | 52 | 1020.8 |
| 20260506181358 | 66 | 240 | 3.5 | 4.3 | 0.00 | 0.00 | 0.00 | 54 | 1020.7 |
| 20260506180855 | 67 | 245 | 2.6 | 3.5 | 0.00 | 0.00 | 0.00 | 52 | 1020.6 |
| 20260506180351 | 68 | 165 | 1.7 | 4.3 | 0.00 | 0.00 | 0.00 | 52 | 1020.6 |
| 20260506175847 | 68 | 193 | 0.9 | 2.6 | 0.00 | 0.00 | 0.00 | 51 | 1020.7 |
| 20260506175344 | 67 | 158 | 2.6 | 5.2 | 0.00 | 0.00 | 0.00 | 51 | 1020.7 |
| 20260506174841 | 68 | 238 | 3.5 | 6.1 | 0.00 | 0.00 | 0.00 | 51 | 1020.6 |
| 20260506174339 | 68 | 235 | 0.0 | 3.5 | 0.00 | 0.00 | 0.00 | 53 | 1020.8 |
| 20260506173836 | 67 | 147 | 1.7 | 2.6 | 0.00 | 0.00 | 0.00 | 54 | 1020.5 |
| 20260506173333 | 67 | 271 | 2.6 | 3.5 | 0.00 | 0.00 | 0.00 | 53 | 1020.5 |
| 20260506172830 | 66 | 149 | 3.5 | 3.5 | 0.00 | 0.00 | 0.00 | 54 | 1020.6 |
| 20260506172326 | 67 | 197 | 2.6 | 4.3 | 0.00 | 0.00 | 0.00 | 53 | 1020.8 |
| 20260506171824 | 67 | 275 | 1.7 | 4.3 | 0.00 | 0.00 | 0.00 | 51 | 1020.7 |
| 20260506171321 | 67 | 209 | 0.0 | 2.6 | 0.00 | 0.00 | 0.00 | 52 | 1020.7 |
| 20260506170819 | 65 | 145 | 0.0 | 2.6 | 0.00 | 0.00 | 0.00 | 55 | 1020.7 |
| 20260506170314 | 65 | 243 | 1.7 | 4.3 | 0.00 | 0.00 | 0.00 | 57 | 1020.7 |
| 20260506165814 | 66 | 312 | 3.5 | 5.2 | 0.00 | 0.00 | 0.00 | 53 | 1020.6 |
| 20260506165310 | 66 | 281 | 3.5 | 3.5 | 0.00 | 0.00 | 0.00 | 54 | 1020.7 |
| 20260506164807 | 65 | 50 | 0.9 | 4.3 | 0.00 | 0.00 | 0.00 | 55 | 1020.6 |
| 20260506164304 | 65 | 153 | 1.7 | 3.5 | 0.00 | 0.00 | 0.00 | 56 | 1020.6 |
| 20260506163801 | 65 | 247 | 0.0 | 2.6 | 0.00 | 0.00 | 0.00 | 57 | 1020.6 |
| 20260506163256 | 65 | 272 | 4.3 | 7.8 | 0.00 | 0.00 | 0.00 | 54 | 1020.5 |
| 20260506162752 | 64 | 194 | 0.0 | 1.7 | 0.00 | 0.00 | 0.00 | 57 | 1020.7 |
| 20260506162250 | 63 | 16 | 1.7 | 3.5 | 0.00 | 0.00 | 0.00 | 56 | 1020.9 |
| 20260506161747 | 64 | 263 | 1.7 | 2.6 | 0.00 | 0.00 | 0.00 | 57 | 1020.5 |
| 20260506161244 | 63 | 314 | 1.7 | 3.5 | 0.00 | 0.00 | 0.00 | 57 | 1020.6 |
| 20260506160741 | 63 | 144 | 0.0 | 1.7 | 0.00 | 0.00 | 0.00 | 57 | 1020.7 |
| 20260506160238 | 62 | 199 | 0.9 | 2.6 | 0.00 | 0.00 | 0.00 | 60 | 1020.8 |
| 20260506155737 | 61 | 177 | 0.0 | 2.6 | 0.00 | 0.00 | 0.00 | 62 | 1020.8 |
| 20260506155233 | 60 | 36 | 1.7 | 1.7 | 0.00 | 0.00 | 0.00 | 62 | 1020.8 |
| 20260506153340 | 58 | 69 | 0.9 | 1.7 | 0.00 | 0.00 | 0.00 | 66 | 1020.8 |
| 20260506152837 | 57 | 84 | 1.7 | 2.6 | 0.00 | 0.00 | 0.00 | 66 | 1020.7 |
| 20260506152334 | 57 | 98 | 0.0 | 2.6 | 0.00 | 0.00 | 0.00 | 68 | 1020.9 |
| 20260506151833 | 56 | 111 | 0.0 | 2.6 | 0.00 | 0.00 | 0.00 | 68 | 1020.6 |
| 20260506151329 | 56 | 97 | 1.7 | 1.7 | 0.00 | 0.00 | 0.00 | 69 | 1020.8 |
| 20260506150827 | 55 | 70 | 0.9 | 2.6 | 0.00 | 0.00 | 0.00 | 69 | 1020.8 |
| 20260506150323 | 55 | 22 | 2.6 | 2.6 | 0.00 | 0.00 | 0.00 | 71 | 1020.8 |
| 20260506145820 | 55 | 61 | 1.7 | 2.6 | 0.00 | 0.00 | 0.00 | 70 | 1020.9 |
| 20260506145316 | 54 | 68 | 1.7 | 1.7 | 0.00 | 0.00 | 0.00 | 72 | 1020.5 |
| 20260506144814 | 54 | 50 | 0.0 | 1.7 | 0.00 | 0.00 | 0.00 | 72 | 1020.9 |
| 20260506144310 | 53 | 88 | 1.7 | 2.6 | 0.00 | 0.00 | 0.00 | 74 | 1020.8 |
| 20260506143809 | 53 | 62 | 1.7 | 2.6 | 0.00 | 0.00 | 0.00 | 75 | 1021.0 |
| 20260506143306 | 52 | 46 | 0.0 | 1.7 | 0.00 | 0.00 | 0.00 | 78 | 1021.0 |
| 20260506142804 | 52 | 44 | 0.0 | 1.7 | 0.00 | 0.00 | 0.00 | 78 | 1020.7 |
| 20260506142301 | 51 | 32 | 2.6 | 2.6 | 0.00 | 0.00 | 0.00 | 80 | 1020.9 |
| 20260506141800 | 51 | 34 | 1.7 | 3.5 | 0.00 | 0.00 | 0.00 | 79 | 1020.6 |
| 20260506141258 | 50 | 21 | 2.6 | 3.5 | 0.00 | 0.00 | 0.00 | 81 | 1020.8 |
| 20260506140755 | 49 | 16 | 0.9 | 2.6 | 0.00 | 0.00 | 0.00 | 83 | 1020.7 |
| 20260506140252 | 49 | 15 | 0.9 | 1.7 | 0.00 | 0.00 | 0.00 | 84 | 1020.6 |
| 20260506135749 | 48 | 10 | 1.7 | 1.7 | 0.00 | 0.00 | 0.00 | 85 | 1020.7 |
| 20260506135245 | 48 | 357 | 1.7 | 2.6 | 0.00 | 0.00 | 0.00 | 85 | 1020.6 |
| 20260506134742 | 47 | 17 | 1.7 | 2.6 | 0.00 | 0.00 | 0.00 | 88 | 1020.4 |
| 20260506134238 | 46 | 31 | 0.9 | 1.7 | 0.00 | 0.00 | 0.00 | 89 | 1020.4 |
| 20260506133736 | 46 | 18 | 1.7 | 2.6 | 0.00 | 0.00 | 0.00 | 90 | 1020.3 |
| 20260506133232 | 45 | 3 | 1.7 | 2.6 | 0.00 | 0.00 | 0.00 | 90 | 1020.3 |
| 20260506132729 | 45 | 6 | 1.7 | 2.6 | 0.00 | 0.00 | 0.00 | 89 | 1020.2 |
| 20260506132226 | 45 | 13 | 0.9 | 1.7 | 0.00 | 0.00 | 0.00 | 89 | 1020.2 |
| 20260506131724 | 45 | 22 | 1.7 | 1.7 | 0.00 | 0.00 | 0.00 | 89 | 1020.2 |
| 20260506131220 | 45 | 21 | 0.9 | 1.7 | 0.00 | 0.00 | 0.00 | 89 | 1020.1 |
| 20260506130717 | 45 | 11 | 0.9 | 1.7 | 0.00 | 0.00 | 0.00 | 90 | 1020.1 |
| 20260506130214 | 45 | 6 | 1.7 | 2.6 | 0.00 | 0.00 | 0.00 | 90 | 1019.7 |
| 20260506125712 | 45 | 28 | 0.9 | 1.7 | 0.00 | 0.00 | 0.00 | 91 | 1019.8 |
| 20260506125209 | 44 | 41 | 0.9 | 0.9 | 0.00 | 0.00 | 0.00 | 92 | 1020.0 |
| 20260506124707 | 44 | 29 | 1.7 | 1.7 | 0.00 | 0.00 | 0.00 | 91 | 1019.8 |
| 20260506124205 | 44 | 38 | 0.9 | 1.7 | 0.00 | 0.00 | 0.00 | 91 | 1019.7 |
| 20260506123702 | 44 | 321 | 1.7 | 2.6 | 0.00 | 0.00 | 0.00 | 91 | 1019.7 |
| 20260506123201 | 44 | 65 | 0.9 | 0.9 | 0.00 | 0.00 | 0.00 | 91 | 1019.7 |
| 20260506122657 | 45 | 69 | 0.0 | 1.7 | 0.00 | 0.00 | 0.00 | 90 | 1019.5 |
| 20260506122155 | 45 | 337 | 0.9 | 1.7 | 0.00 | 0.00 | 0.00 | 90 | 1019.6 |
| 20260506121652 | 45 | 30 | 2.6 | 2.6 | 0.00 | 0.00 | 0.00 | 90 | 1019.8 |
| 20260506121148 | 45 | 27 | 1.7 | 1.7 | 0.00 | 0.00 | 0.00 | 89 | 1019.7 |
| 20260506120647 | 45 | 23 | 0.9 | 3.5 | 0.00 | 0.00 | 0.00 | 89 | 1019.5 |
| 20260506120143 | 45 | 4 | 2.6 | 2.6 | 0.00 | 0.00 | 0.00 | 89 | 1019.6 |
| 20260506115642 | 45 | 46 | 0.0 | 1.7 | 0.00 | 0.00 | 0.00 | 89 | 1019.6 |
| 20260506115140 | 45 | 359 | 1.7 | 2.6 | 0.00 | 0.00 | 0.00 | 88 | 1019.7 |
| 20260506114637 | 46 | 17 | 1.7 | 1.7 | 0.00 | 0.00 | 0.00 | 87 | 1019.5 |
| 20260506114135 | 46 | 18 | 1.7 | 2.6 | 0.00 | 0.00 | 0.00 | 88 | 1019.7 |
| 20260506113633 | 46 | 21 | 1.7 | 3.5 | 0.00 | 0.00 | 0.00 | 88 | 1019.6 |
| 20260506113130 | 46 | 347 | 0.9 | 2.6 | 0.00 | 0.00 | 0.00 | 88 | 1019.7 |
| 20260506112626 | 46 | 21 | 0.9 | 1.7 | 0.00 | 0.00 | 0.00 | 87 | 1019.6 |
| 20260506112124 | 46 | 23 | 1.7 | 2.6 | 0.00 | 0.00 | 0.00 | 88 | 1019.5 |
| 20260506111621 | 46 | 65 | 0.9 | 1.7 | 0.00 | 0.00 | 0.00 | 87 | 1019.3 |
| 20260506111119 | 46 | 28 | 1.7 | 2.6 | 0.00 | 0.00 | 0.00 | 88 | 1019.4 |
| 20260506110616 | 46 | 330 | 0.9 | 3.5 | 0.00 | 0.00 | 0.00 | 88 | 1019.5 |
| 20260506110113 | 46 | 31 | 2.6 | 2.6 | 0.00 | 0.00 | 0.00 | 89 | 1019.4 |
| 20260506105609 | 46 | 40 | 0.9 | 1.7 | 0.00 | 0.00 | 0.00 | 88 | 1019.3 |
| 20260506105107 | 46 | 23 | 1.7 | 1.7 | 0.00 | 0.00 | 0.00 | 88 | 1019.3 |
| 20260506104605 | 46 | 12 | 1.7 | 1.7 | 0.00 | 0.00 | 0.00 | 89 | 1019.2 |
| 20260506104102 | 46 | 13 | 1.7 | 2.6 | 0.00 | 0.00 | 0.00 | 89 | 1019.1 |
| 20260506103559 | 46 | 353 | 1.7 | 1.7 | 0.00 | 0.00 | 0.00 | 89 | 1019.0 |
| 20260506103056 | 46 | 18 | 1.7 | 1.7 | 0.00 | 0.00 | 0.00 | 90 | 1019.1 |
| 20260506102554 | 45 | 6 | 1.7 | 2.6 | 0.00 | 0.00 | 0.00 | 91 | 1018.9 |
| 20260506102051 | 45 | 19 | 1.7 | 1.7 | 0.00 | 0.00 | 0.00 | 90 | 1019.0 |
| 20260506101548 | 45 | 20 | 0.9 | 1.7 | 0.00 | 0.00 | 0.00 | 90 | 1019.1 |
| 20260506101045 | 45 | 21 | 1.7 | 2.6 | 0.00 | 0.00 | 0.00 | 89 | 1018.8 |
| 20260506100543 | 45 | 22 | 0.9 | 1.7 | 0.00 | 0.00 | 0.00 | 89 | 1018.9 |
| 20260506100041 | 46 | 23 | 2.6 | 2.6 | 0.00 | 0.00 | 0.00 | 89 | 1018.9 |
| 20260506095540 | 46 | 15 | 0.9 | 2.6 | 0.00 | 0.00 | 0.00 | 88 | 1018.8 |
| 20260506095036 | 46 | 19 | 1.7 | 5.2 | 0.00 | 0.00 | 0.00 | 88 | 1019.1 |
| 20260506094533 | 46 | 68 | 0.9 | 2.6 | 0.00 | 0.00 | 0.00 | 88 | 1019.1 |
| 20260506094031 | 46 | 79 | 0.0 | 1.7 | 0.00 | 0.00 | 0.00 | 90 | 1019.0 |
| 20260506093529 | 45 | 26 | 1.7 | 2.6 | 0.00 | 0.00 | 0.00 | 90 | 1019.0 |
| 20260506093026 | 45 | 52 | 0.0 | 1.7 | 0.00 | 0.00 | 0.00 | 90 | 1019.2 |
| 20260506092524 | 46 | 29 | 0.9 | 1.7 | 0.00 | 0.00 | 0.00 | 90 | 1019.2 |
| 20260506092020 | 46 | 44 | 0.0 | 0.9 | 0.00 | 0.00 | 0.00 | 90 | 1019.2 |
| 20260506091519 | 45 | 32 | 1.7 | 2.6 | 0.00 | 0.00 | 0.00 | 89 | 1019.0 |
| 20260506091016 | 46 | 24 | 1.7 | 2.6 | 0.00 | 0.00 | 0.00 | 89 | 1018.9 |
| 20260506090514 | 46 | 41 | 1.7 | 2.6 | 0.00 | 0.00 | 0.00 | 88 | 1019.0 |
| 20260506090010 | 47 | 3 | 0.9 | 1.7 | 0.00 | 0.00 | 0.00 | 87 | 1019.1 |
| 20260506085507 | 47 | 13 | 0.9 | 1.7 | 0.00 | 0.00 | 0.00 | 88 | 1019.2 |
| 20260506085003 | 46 | 23 | 1.7 | 1.7 | 0.00 | 0.00 | 0.00 | 89 | 1019.3 |
| 20260506084500 | 46 | 13 | 0.9 | 2.6 | 0.00 | 0.00 | 0.00 | 87 | 1019.1 |
| 20260506083956 | 47 | 38 | 0.0 | 1.7 | 0.00 | 0.00 | 0.00 | 87 | 1019.0 |
| 20260506083453 | 47 | 100 | 0.9 | 1.7 | 0.00 | 0.00 | 0.00 | 88 | 1019.1 |
| 20260506082951 | 47 | 11 | 1.7 | 2.6 | 0.00 | 0.00 | 0.00 | 88 | 1019.1 |
| 20260506082448 | 46 | 23 | 0.0 | 1.7 | 0.00 | 0.00 | 0.00 | 89 | 1019.2 |
| 20260506081943 | 46 | 30 | 0.9 | 2.6 | 0.00 | 0.00 | 0.00 | 88 | 1019.1 |
| 20260506081442 | 47 | 12 | 1.7 | 1.7 | 0.00 | 0.00 | 0.00 | 88 | 1019.1 |
| 20260506080939 | 47 | 18 | 1.7 | 2.6 | 0.00 | 0.00 | 0.00 | 88 | 1019.1 |
| 20260506080436 | 47 | 26 | 1.7 | 1.7 | 0.00 | 0.00 | 0.00 | 88 | 1019.1 |
| 20260506073420 | 47 | 335 | 0.9 | 3.5 | 0.00 | 0.00 | 0.00 | 87 | 1018.9 |
| 20260506072917 | 47 | 15 | 1.7 | 1.7 | 0.00 | 0.00 | 0.00 | 87 | 1018.8 |
| 20260506072414 | 47 | 26 | 1.7 | 2.6 | 0.00 | 0.00 | 0.00 | 86 | 1018.9 |
| 20260506071912 | 48 | 17 | 1.7 | 1.7 | 0.00 | 0.00 | 0.00 | 86 | 1018.7 |
| 20260506071410 | 48 | 33 | 1.7 | 1.7 | 0.00 | 0.00 | 0.00 | 87 | 1018.8 |
| 20260506070906 | 47 | 21 | 0.9 | 1.7 | 0.00 | 0.00 | 0.00 | 87 | 1018.4 |
| 20260506070403 | 47 | 11 | 0.9 | 1.7 | 0.00 | 0.00 | 0.00 | 87 | 1018.7 |
| 20260506062340 | 47 | 63 | 0.9 | 0.9 | 0.00 | 0.04 | 0.04 | 89 | 1018.3 |
| 20260506061836 | 47 | 42 | 1.7 | 1.7 | 0.00 | 0.04 | 0.04 | 88 | 1018.2 |
| 20260506061333 | 47 | 55 | 0.0 | 0.0 | 0.00 | 0.04 | 0.04 | 89 | 1018.3 |
| 20260506060831 | 47 | 130 | 0.0 | 0.0 | 0.00 | 0.04 | 0.04 | 89 | 1018.0 |
| 20260506060329 | 47 | 330 | 0.9 | 1.7 | 0.00 | 0.04 | 0.04 | 89 | 1018.1 |
| 20260506051300 | 48 | 36 | 0.0 | 1.7 | 0.00 | 0.04 | 0.04 | 88 | 1017.7 |
| 20260506050758 | 48 | 44 | 0.0 | 0.0 | 0.00 | 0.04 | 0.04 | 88 | 1017.5 |
| 20260506050256 | 48 | 66 | 0.0 | 0.0 | 0.00 | 0.04 | 0.04 | 87 | 1017.5 |
| 20260506044746 | 49 | 53 | 0.0 | 0.9 | 0.00 | 0.04 | 0.04 | 86 | 1017.4 |
| 20260506044244 | 49 | 122 | 0.0 | 1.7 | 0.00 | 0.04 | 0.04 | 85 | 1017.3 |
| 20260506043741 | 49 | 14 | 1.7 | 2.6 | 0.00 | 0.04 | 0.04 | 85 | 1017.3 |
| 20260506043238 | 48 | 10 | 1.7 | 1.7 | 0.00 | 0.04 | 0.04 | 87 | 1017.3 |
| 20260506042737 | 48 | 5 | 0.0 | 0.9 | 0.00 | 0.04 | 0.04 | 87 | 1017.2 |
| 20260506042235 | 49 | 246 | 0.0 | 0.9 | 0.00 | 0.04 | 0.04 | 86 | 1017.2 |
| 20260506041733 | 49 | 280 | 0.0 | 0.0 | 0.00 | 0.04 | 0.04 | 86 | 1017.2 |
| 20260506041230 | 49 | 279 | 0.0 | 0.0 | 0.00 | 0.04 | 0.04 | 85 | 1017.0 |
| 20260506040727 | 49 | 235 | 0.0 | 0.9 | 0.00 | 0.04 | 0.04 | 85 | 1016.9 |
| 20260506040224 | 49 | 63 | 0.0 | 0.9 | 0.00 | 0.04 | 0.04 | 85 | 1016.9 |
| 20260506035721 | 50 | 38 | 0.0 | 0.0 | 0.00 | 0.04 | 0.04 | 84 | 1016.7 |
| 20260506035218 | 50 | 42 | 0.0 | 0.0 | 0.00 | 0.04 | 0.04 | 83 | 1017.0 |
| 20260506034714 | 50 | 338 | 0.0 | 1.7 | 0.00 | 0.04 | 0.04 | 83 | 1016.6 |
| 20260506034212 | 50 | 17 | 0.0 | 0.0 | 0.00 | 0.04 | 0.04 | 83 | 1016.7 |
| 20260506033709 | 50 | 27 | 2.6 | 3.5 | 0.00 | 0.04 | 0.04 | 82 | 1016.7 |
| 20260506033206 | 51 | 212 | 0.0 | 0.9 | 0.00 | 0.04 | 0.04 | 82 | 1016.5 |
| 20260506032703 | 51 | 333 | 0.9 | 1.7 | 0.00 | 0.04 | 0.04 | 82 | 1016.5 |
| 20260506032200 | 51 | 29 | 0.0 | 0.9 | 0.00 | 0.04 | 0.04 | 81 | 1016.5 |
| 20260506031656 | 51 | 326 | 0.0 | 0.9 | 0.00 | 0.04 | 0.04 | 81 | 1016.4 |
| 20260506031154 | 52 | 22 | 0.0 | 0.9 | 0.00 | 0.04 | 0.04 | 80 | 1016.3 |
| 20260506030652 | 52 | 22 | 0.0 | 0.0 | 0.00 | 0.04 | 0.04 | 79 | 1016.2 |
| 20260506030149 | 52 | 32 | 0.0 | 0.9 | 0.00 | 0.04 | 0.04 | 79 | 1016.1 |
| 20260506025646 | 53 | 336 | 0.0 | 0.0 | 0.00 | 0.04 | 0.04 | 78 | 1016.1 |
| 20260506025142 | 53 | 49 | 0.0 | 0.9 | 0.00 | 0.04 | 0.04 | 77 | 1016.0 |
| 20260506024640 | 54 | 232 | 0.0 | 0.9 | 0.00 | 0.04 | 0.04 | 76 | 1016.2 |
| 20260506024135 | 55 | 246 | 0.0 | 0.0 | 0.00 | 0.04 | 0.04 | 73 | 1016.1 |
| 20260506023632 | 57 | 309 | 0.0 | 0.9 | 0.00 | 0.04 | 0.04 | 69 | 1016.0 |
| 20260506023129 | 57 | 17 | 1.7 | 3.5 | 0.00 | 0.04 | 0.04 | 64 | 1015.9 |
| 20260506022627 | 57 | 60 | 0.0 | 1.7 | 0.00 | 0.04 | 0.04 | 66 | 1015.9 |
| 20260506022124 | 58 | 7 | 1.7 | 3.5 | 0.00 | 0.04 | 0.04 | 64 | 1015.7 |
| 20260506021622 | 58 | 69 | 0.0 | 0.0 | 0.00 | 0.04 | 0.04 | 66 | 1015.7 |
| 20260506021119 | 59 | 50 | 0.0 | 1.7 | 0.00 | 0.04 | 0.04 | 63 | 1015.5 |
| 20260506020616 | 60 | 69 | 0.0 | 0.9 | 0.00 | 0.04 | 0.04 | 61 | 1015.6 |
| 20260506020113 | 60 | 73 | 1.7 | 2.6 | 0.00 | 0.04 | 0.04 | 60 | 1015.6 |
| 20260506015611 | 61 | 51 | 0.9 | 2.6 | 0.00 | 0.04 | 0.04 | 60 | 1015.6 |
| 20260506015107 | 61 | 104 | 0.0 | 2.6 | 0.00 | 0.04 | 0.04 | 59 | 1015.5 |
| 20260506014605 | 61 | 36 | 1.7 | 2.6 | 0.00 | 0.04 | 0.04 | 57 | 1015.5 |
| 20260506014100 | 61 | 98 | 2.6 | 3.5 | 0.00 | 0.04 | 0.04 | 56 | 1015.5 |
| 20260506013559 | 61 | 31 | 3.5 | 3.5 | 0.00 | 0.04 | 0.04 | 58 | 1015.3 |
| 20260506013055 | 61 | 340 | 0.9 | 4.3 | 0.00 | 0.04 | 0.04 | 56 | 1015.4 |
| 20260506012551 | 61 | 29 | 2.6 | 3.5 | 0.00 | 0.04 | 0.04 | 57 | 1015.5 |
| 20260506012048 | 61 | 50 | 0.0 | 0.9 | 0.00 | 0.04 | 0.04 | 56 | 1015.5 |
| 20260506011546 | 61 | 295 | 1.7 | 3.5 | 0.00 | 0.04 | 0.04 | 56 | 1015.3 |
| 20260506011042 | 61 | 0 | 1.7 | 6.1 | 0.00 | 0.04 | 0.04 | 55 | 1015.5 |
| 20260506010542 | 62 | 309 | 1.7 | 4.3 | 0.00 | 0.04 | 0.04 | 53 | 1015.6 |
| 20260506010038 | 62 | 317 | 3.5 | 4.3 | 0.00 | 0.04 | 0.04 | 55 | 1015.6 |
| 20260506005535 | 62 | 23 | 7.8 | 7.8 | 0.00 | 0.04 | 0.04 | 54 | 1015.6 |
| 20260506005031 | 62 | 13 | 3.5 | 5.2 | 0.00 | 0.04 | 0.04 | 55 | 1015.4 |
| 20260506004529 | 62 | 106 | 1.7 | 5.2 | 0.00 | 0.04 | 0.04 | 56 | 1015.3 |
| 20260506004025 | 63 | 119 | 2.6 | 2.6 | 0.00 | 0.04 | 0.04 | 56 | 1015.4 |
| 20260506003521 | 63 | 37 | 1.7 | 2.6 | 0.00 | 0.04 | 0.04 | 58 | 1015.4 |
| 20260506003018 | 62 | 71 | 1.7 | 3.5 | 0.00 | 0.04 | 0.04 | 58 | 1015.6 |
| 20260506002514 | 62 | 51 | 2.6 | 2.6 | 0.00 | 0.04 | 0.04 | 59 | 1015.6 |
| 20260506002009 | 62 | 60 | 0.0 | 2.6 | 0.00 | 0.04 | 0.04 | 59 | 1015.6 |
| 20260506001506 | 62 | 43 | 1.7 | 3.5 | 0.00 | 0.04 | 0.04 | 59 | 1015.6 |
| 20260506001004 | 62 | 87 | 1.7 | 3.5 | 0.00 | 0.04 | 0.04 | 59 | 1015.6 |
| 20260506000501 | 61 | 65 | 0.9 | 3.5 | 0.00 | 0.04 | 0.04 | 59 | 1015.5 |
| 20260505235958 | 61 | 142 | 0.9 | 1.7 | 0.00 | 0.04 | 0.04 | 58 | 1015.6 |
| 20260505235456 | 61 | 98 | 0.0 | 2.6 | 0.00 | 0.04 | 0.04 | 59 | 1015.6 |
| 20260505234952 | 61 | 67 | 1.7 | 1.7 | 0.00 | 0.04 | 0.04 | 61 | 1015.7 |
| 20260505234450 | 61 | 96 | 0.9 | 1.7 | 0.00 | 0.04 | 0.04 | 60 | 1015.7 |
| 20260505233946 | 61 | 71 | 1.7 | 1.7 | 0.00 | 0.04 | 0.04 | 60 | 1015.7 |
| 20260505233444 | 60 | 89 | 0.0 | 2.6 | 0.00 | 0.04 | 0.04 | 61 | 1015.9 |
| 20260505232941 | 60 | 40 | 1.7 | 2.6 | 0.00 | 0.04 | 0.04 | 61 | 1015.6 |
| 20260505232439 | 60 | 10 | 3.5 | 3.5 | 0.00 | 0.04 | 0.04 | 61 | 1016.2 |
| 20260505231936 | 60 | 59 | 0.9 | 1.7 | 0.00 | 0.04 | 0.04 | 62 | 1015.9 |
| 20260505231433 | 60 | 39 | 0.0 | 1.7 | 0.00 | 0.04 | 0.04 | 58 | 1015.7 |
| 20260505230931 | 60 | 310 | 2.6 | 2.6 | 0.00 | 0.04 | 0.04 | 57 | 1016.1 |
| 20260505230429 | 60 | 300 | 1.7 | 4.3 | 0.00 | 0.04 | 0.04 | 57 | 1015.9 |
| 20260505225925 | 60 | 15 | 2.6 | 3.5 | 0.00 | 0.04 | 0.04 | 58 | 1015.9 |
| 20260505225422 | 60 | 10 | 0.0 | 1.7 | 0.00 | 0.04 | 0.04 | 60 | 1015.7 |
| 20260505224918 | 60 | 304 | 1.7 | 2.6 | 0.00 | 0.04 | 0.04 | 58 | 1015.9 |
| 20260505224415 | 60 | 306 | 3.5 | 4.3 | 0.00 | 0.04 | 0.04 | 57 | 1015.9 |
| 20260505223912 | 60 | 317 | 1.7 | 3.5 | 0.00 | 0.04 | 0.04 | 59 | 1015.7 |
| 20260505223409 | 60 | 310 | 1.7 | 2.6 | 0.00 | 0.04 | 0.04 | 59 | 1016.0 |
| 20260505222905 | 60 | 9 | 2.6 | 7.0 | 0.00 | 0.04 | 0.04 | 58 | 1015.9 |
| 20260505222402 | 60 | 334 | 1.7 | 3.5 | 0.00 | 0.04 | 0.04 | 59 | 1015.9 |
| 20260505221858 | 60 | 331 | 1.7 | 2.6 | 0.00 | 0.04 | 0.04 | 59 | 1015.9 |
| 20260505221355 | 60 | 12 | 1.7 | 1.7 | 0.00 | 0.04 | 0.04 | 58 | 1015.7 |
| 20260505220852 | 60 | 315 | 1.7 | 2.6 | 0.00 | 0.04 | 0.04 | 59 | 1015.7 |
| 20260505220349 | 60 | 353 | 1.7 | 3.5 | 0.00 | 0.04 | 0.04 | 59 | 1015.7 |
| 20260505215847 | 60 | 12 | 1.7 | 4.3 | 0.00 | 0.04 | 0.04 | 58 | 1015.9 |
| 20260505215345 | 60 | 319 | 2.6 | 5.2 | 0.00 | 0.04 | 0.04 | 59 | 1015.7 |
| 20260505214843 | 60 | 358 | 1.7 | 3.5 | 0.00 | 0.04 | 0.04 | 59 | 1015.7 |
| 20260505214340 | 60 | 347 | 1.7 | 2.6 | 0.00 | 0.04 | 0.04 | 59 | 1015.9 |
| 20260505213837 | 60 | 315 | 4.3 | 5.2 | 0.00 | 0.04 | 0.04 | 59 | 1016.0 |
| 20260505213335 | 60 | 277 | 1.7 | 5.2 | 0.00 | 0.04 | 0.04 | 59 | 1016.0 |
| 20260505212830 | 60 | 39 | 4.3 | 5.2 | 0.00 | 0.04 | 0.04 | 58 | 1016.0 |
| 20260505212328 | 61 | 345 | 0.9 | 2.6 | 0.00 | 0.04 | 0.04 | 57 | 1016.1 |
| 20260505211823 | 60 | 349 | 0.9 | 3.5 | 0.00 | 0.04 | 0.04 | 57 | 1015.7 |
| 20260505211322 | 60 | 9 | 2.6 | 5.2 | 0.00 | 0.04 | 0.04 | 59 | 1016.0 |
| 20260505210818 | 60 | 17 | 0.0 | 3.5 | 0.00 | 0.04 | 0.04 | 61 | 1015.9 |
| 20260505210315 | 60 | 11 | 1.7 | 3.5 | 0.00 | 0.04 | 0.04 | 61 | 1016.0 |
| 20260505205812 | 59 | 0 | 0.9 | 3.5 | 0.00 | 0.04 | 0.04 | 62 | 1015.7 |
| 20260505205310 | 59 | 7 | 0.0 | 3.5 | 0.00 | 0.04 | 0.04 | 62 | 1015.9 |
| 20260505204806 | 59 | 350 | 2.6 | 5.2 | 0.00 | 0.04 | 0.04 | 63 | 1015.7 |
| 20260505204304 | 59 | 29 | 1.7 | 3.5 | 0.00 | 0.04 | 0.04 | 63 | 1015.7 |
| 20260505203801 | 59 | 21 | 2.6 | 5.2 | 0.00 | 0.04 | 0.04 | 66 | 1015.7 |
| 20260505203258 | 59 | 312 | 1.7 | 3.5 | 0.00 | 0.04 | 0.04 | 63 | 1016.0 |
| 20260505202754 | 59 | 321 | 2.6 | 4.3 | 0.00 | 0.04 | 0.04 | 65 | 1016.0 |
| 20260505202250 | 59 | 320 | 2.6 | 7.0 | 0.00 | 0.04 | 0.04 | 67 | 1015.7 |
| 20260505201747 | 59 | 9 | 1.7 | 7.8 | 0.00 | 0.04 | 0.04 | 67 | 1015.7 |
| 20260505201245 | 60 | 331 | 2.6 | 5.2 | 0.00 | 0.04 | 0.04 | 66 | 1015.7 |
| 20260505200743 | 60 | 309 | 1.7 | 2.6 | 0.00 | 0.04 | 0.04 | 65 | 1015.7 |
| 20260505200240 | 60 | 296 | 1.7 | 7.0 | 0.00 | 0.04 | 0.04 | 67 | 1015.6 |
| 20260505195735 | 59 | 269 | 0.0 | 4.3 | 0.00 | 0.04 | 0.04 | 72 | 1015.7 |